Home   Weather   Knoxville   Past weeks

Flag for USA Past Weather in Knoxville, Tennessee, USA — Yesterday and Last 2 Weeks

Now
58 °F

Light rain. Mostly cloudy.


Feels Like: 58 °F
Forecast: 54 / 63 °F
Wind: 3 mph from Northwest

Location: McGhee Tyson Airport

Current Time: Feb 22, 2017 at 1:36:38 am

Latest Report: Feb 22, 2017 at 12:53 am


Visibility: 10 mi

Pressure: 29.93 "Hg

Humidity: 75%

Dew Point: 50 °F

Location of KnoxvilleLocation

Past Weather in Knoxville — Graph

°F

Knoxville Temperature Yesterday

Maximum temperature yesterday: 72 °F (at 12:53 pm)
Minimum temperature yesterday: 46 °F (at 6:53 am)
Average temperature yesterday: 59 °F

High & Low Weather Summary for the Past Weeks

 TemperatureHumidityPressure
High77 °F (Feb 12, 1:53 pm)97% (Feb 7, 1:53 am)30.44 "Hg (Feb 7, 1:53 am)
Low25 °F (Feb 10, 2:53 am)18% (Feb 13, 4:53 pm)29.64 "Hg (Feb 8, 5:53 pm)
Average51 °F63%30.01 "Hg
* Reported Feb 6 11:53 pm — Feb 21 11:53 pm, Knoxville, Weather by CustomWeather, © 2017

Note: Actual official high and low records may vary slightly from our data, if they occured in-between our weather recording intervals... More about our weather records

Advertising

Knoxville Weather History for the Previous 24 Hours

Scroll right to see more
 ConditionsComfort  
Time TempWeatherWind HumidityBarometerVisibility
11:53 pm
Tue, Feb 21
60 °FLight rain. Mostly cloudy.3 mph67%29.94 "Hg10 mi
10:53 pm60 °FOvercast.No wind67%29.95 "Hg10 mi
9:53 pm62 °FOvercast.No wind60%29.97 "Hg10 mi
8:53 pm62 °FOvercast.6 mph60%29.97 "Hg10 mi
7:53 pm63 °FOvercast.5 mph54%29.98 "Hg10 mi
6:53 pm65 °FMostly cloudy.6 mph49%29.98 "Hg10 mi
5:53 pm66 °FLight rain. Mostly cloudy.8 mph50%29.98 "Hg10 mi
4:53 pm68 °FMostly cloudy.9 mph42%29.97 "Hg10 mi
3:53 pm68 °FMostly cloudy.10 mph47%29.97 "Hg10 mi
2:53 pm72 °FCloudy.10 mph38%29.96 "Hg10 mi
1:53 pm71 °FCloudy.10 mph38%29.97 "Hg10 mi
12:53 pm72 °FMore clouds than sun.13 mph38%30.02 "Hg10 mi
11:53 am69 °FMore clouds than sun.5 mph41%30.04 "Hg10 mi
10:53 am64 °FMore clouds than sun.5 mph50%30.05 "Hg10 mi
9:53 am57 °FBroken clouds.No wind64%30.06 "Hg10 mi
8:53 am50 °FBroken clouds.5 mph80%30.06 "Hg10 mi
7:53 am46 °FBroken clouds.3 mph86%30.07 "Hg10 mi
6:53 am46 °FHigh level clouds.No wind86%30.08 "Hg10 mi
5:53 am47 °FPassing clouds.3 mph83%30.09 "Hg10 mi
4:53 am48 °FPassing clouds.3 mph83%30.08 "Hg10 mi
3:53 am49 °FMostly cloudy.6 mph80%30.07 "Hg10 mi
2:53 am48 °FPartly cloudy.3 mph83%30.09 "Hg10 mi
1:53 am50 °FPartly cloudy.No wind80%30.08 "Hg10 mi
Weather by CustomWeather, © 2017

See weather overviewHow to use our weather pages